Weather History for Billings, MT

Change the Weather History Date:

Saturday, December 1, 2012

  Actual Average Record
Temperature  
Mean Temperature 51 °F 29 °F  
Max Temperature 61 °F 38 °F 65 °F (1995)
Min Temperature 40 °F 21 °F -21 °F (1985)
Degree Days  
Heating Degree Days 14 36  
Month to date heating degree days 14 36  
Since 1 July heating degree days 1396 1664  
Cooling Degree Days 0 0  
Month to date cooling degree days 0 0  
Year to date cooling degree days 958 636  
Moisture  
Dew Point 31 °F    
Average Humidity 50    
Maximum Humidity 73    
Minimum Humidity 27    
Precipitation  
Precipitation 0.00 in 0.02 in 0.67 in (1947)
Month to date precipitation 0.00 0.02  
Year to date precipitation 6.86 13.18  
Snow  
Snow 0.00 in 0.30 in 4.40 in (1947)
Month to date snowfall 0.0 0.3  
Since 1 July snowfall 11.6 12.0  
Snow Depth 0.00 in    
Sea Level Pressure  
Sea Level Pressure 29.73 in    
Wind  
Wind Speed 10 mph (WSW)    
Max Wind Speed 21 mph    
Max Gust Speed 32 mph    
Visibility 10 miles    
Events      
T = Trace of Precipitation, MM = Missing Value Source: NWS Daily Summary

Daily Weather History Graph

Daily Weather History Graph

Search for Another Location

Airport:

Trip Planner

Search our weather history database for the weather conditions in past years. The results will help you decide how hot, cold, wet, or windy it might be!

Date:

Astronomy

Dec. 01, 2012 Rise Set
Actual Time 7:35 AM MST 4:31 PM MST
Civil Twilight 7:01 AM MST 5:04 PM MST
Nautical Twilight 6:24 AM MST 5:42 PM MST
Astronomical Twilight 5:48 AM MST 6:17 PM MST
Moon 7:26 PM MST (12/1) 9:48 AM MST (12/1)
Length of Visible Light 10h 03m
Length of Day
8h 55m
Waning Gibbous, 91% of the Moon is Illuminated
Dec 1
Waning Gibbous
Dec 6
Last Quarter
Dec 13
New
Dec 19
First Quarter
Dec 28
Full

Hourly Weather History & Observations

Time (MST) Temp. Windchill Dew Point Humidity Pressure Visibility Wind Dir Wind Speed Gust Speed Precip Events Conditions
12:53 AM 46.0 °F 43.1 °F 33.1 °F 61% 29.69 in 10.0 mi SW 5.8 mph - N/A   Overcast
1:53 AM 46.9 °F - 34.0 °F 61% 29.69 in 10.0 mi NW 6.9 mph - N/A   Overcast
2:53 AM 46.0 °F 41.4 °F 34.0 °F 63% 29.72 in 10.0 mi SW 9.2 mph - N/A   Overcast
3:53 AM 46.0 °F 41.9 °F 34.0 °F 63% 29.72 in 10.0 mi SW 8.1 mph - N/A   Overcast
4:53 AM 42.1 °F 35.7 °F 32.0 °F 67% 29.75 in 10.0 mi SW 11.5 mph - N/A   Scattered Clouds
5:53 AM 42.1 °F 34.9 °F 32.0 °F 67% 29.76 in 10.0 mi WSW 13.8 mph - N/A   Partly Cloudy
6:53 AM 42.1 °F 35.7 °F 33.1 °F 70% 29.77 in 10.0 mi SW 11.5 mph - N/A   Scattered Clouds
7:53 AM 41.0 °F 33.1 °F 33.1 °F 73% 29.78 in 10.0 mi WSW 15.0 mph - N/A   Partly Cloudy
8:53 AM 41.0 °F 34.7 °F 33.1 °F 73% 29.77 in 10.0 mi SW 10.4 mph - N/A   Partly Cloudy
9:53 AM 43.0 °F 37.2 °F 33.1 °F 68% 29.76 in 10.0 mi SW 10.4 mph - N/A   Partly Cloudy
10:53 AM 48.9 °F - 34.0 °F 56% 29.74 in 10.0 mi SSW 8.1 mph - N/A   Partly Cloudy
11:53 AM 53.1 °F - 33.1 °F 47% 29.72 in 10.0 mi SW 4.6 mph - N/A   Partly Cloudy
12:53 PM 57.0 °F - 30.9 °F 37% 29.70 in 10.0 mi WSW 9.2 mph - N/A   Partly Cloudy
1:53 PM 61.0 °F - 26.1 °F 26% 29.69 in 10.0 mi West 12.7 mph 32.2 mph N/A   Scattered Clouds
2:53 PM 57.9 °F - 26.1 °F 30% 29.68 in 10.0 mi WSW 8.1 mph - N/A   Partly Cloudy
3:53 PM 57.0 °F - 27.0 °F 32% 29.68 in 10.0 mi WSW 13.8 mph 20.7 mph N/A   Partly Cloudy
4:53 PM 55.0 °F - 28.0 °F 35% 29.70 in 10.0 mi West 12.7 mph - N/A   Partly Cloudy
5:53 PM 51.1 °F - 28.9 °F 43% 29.71 in 10.0 mi SW 11.5 mph 20.7 mph N/A   Partly Cloudy
6:53 PM 51.1 °F - 28.9 °F 43% 29.73 in 10.0 mi WSW 12.7 mph - N/A   Scattered Clouds
7:53 PM 50.0 °F - 30.0 °F 46% 29.75 in 10.0 mi WSW 13.8 mph - N/A   Partly Cloudy
8:53 PM 48.9 °F - 30.0 °F 48% 29.76 in 10.0 mi WSW 10.4 mph - N/A   Partly Cloudy
9:53 PM 48.0 °F - 30.0 °F 50% 29.75 in 10.0 mi WSW 9.2 mph - N/A   Clear
10:53 PM 48.9 °F - 30.0 °F 48% 29.74 in 10.0 mi SSW 9.2 mph - N/A   Partly Cloudy
11:53 PM 42.1 °F 37.1 °F 30.0 °F 62% 29.73 in 10.0 mi WSW 8.1 mph - N/A   Partly Cloudy